Moses Lake, WA
on Thursday, January 17, 2013

Thursday
Previous Day Next Day
Daily Summary
 ActualAverageRecord
Temperature
Mean Temperature °F / °C 30°F / -1°C  
Max Temperature 27°F / -3°C 36°F / 2°C 55°F / 12°C (2011)
Min Temperature 20°F / -7°C 24°F / -4°C 10°F / -12°C (1984)
Degree Days
Heating Degree Days 41 35  
Month to date heating degree days 641 614  
Since 1 July heating degree days 2849 3201  
Cooling Degree Days 0 0  
Month to date cooling degree days 0 0  
Year to date cooling degree days 0 0  
Moisture
Dew Point 21°F / -6°C   
Average Humidity 87    
Maximum Humidity 92    
Minimum Humidity 81    
Precipitation
Precipitation 0.00 in / 0.00 cm 0.03 in / 0.76 cm 0.52 in / 1.32 cm (1999)
Month to date precipitation 0.27 0.78  
Year to date precipitation 0.27 0.78  
Wind
Wind Speed 4 mph / 6 km/h   
Max Wind Speed 8 mph / 13 km/h   
Max Gust Speed 10 mph / 16 km/h   
Visibility 8 miles / 12 kilometers   
Events     

Key: T is trace of precipitation, MM is missing value
Source: NWS Daily Summary
Time(PST)TemperatureDew PointHumidity Pressure Visibility Wind DirectionWind SpeedGust SpeedPrecipitationEvents Conditions
12:52 AM 21.0°F / -6.1°C 17.1°F / -8.3°C 85% 30.62 in / 1036.8 hPa 10.0 miles / 16.1 kilometers North 5.8 mph / 9.3 km/h - N/A   Clear
1:52 AM 21.9°F / -5.6°C 18.0°F / -7.8°C 85% 30.61 in / 1036.5 hPa 10.0 miles / 16.1 kilometers North 8.1 mph / 13.0 km/h - N/A   Mostly Cloudy
2:23 AM 21.2°F / -6.0°C 17.6°F / -8.0°C 86% 30.57 in / 1035.1 hPa 10.0 miles / 16.1 kilometers North 5.8 mph / 9.3 km/h - N/A   Overcast
2:52 AM 21.2°F / -6.0°C 17.6°F / -8.0°C 86% 30.56 in / 1034.8 hPa 10.0 miles / 16.1 kilometers North 5.8 mph / 9.3 km/h - N/A   Overcast
3:52 AM 19.9°F / -6.7°C 16.0°F / -8.9°C 85% 30.61 in / 1036.5 hPa 10.0 miles / 16.1 kilometers NNW 6.9 mph / 11.1 km/h - N/A   Mostly Cloudy
4:52 AM 21.9°F / -5.6°C 18.0°F / -7.8°C 85% 30.60 in / 1036.1 hPa 9.0 miles / 14.5 kilometers North 6.9 mph / 11.1 km/h - N/A   Overcast
5:12 AM 23.0°F / -5.0°C 19.4°F / -7.0°C 86% 30.55 in / 1034.4 hPa 8.0 miles / 12.9 kilometers North 5.8 mph / 9.3 km/h - N/A   Overcast
5:52 AM 24.1°F / -4.4°C 21.0°F / -6.1°C 88% 30.60 in / 1036.2 hPa 6.0 miles / 9.7 kilometers North 6.9 mph / 11.1 km/h - N/A   Overcast
6:52 AM 25.0°F / -3.9°C 21.9°F / -5.6°C 88% 30.60 in / 1036.2 hPa 5.0 miles / 8.0 kilometers North 5.8 mph / 9.3 km/h - N/A   Overcast
7:52 AM 25.0°F / -3.9°C 21.9°F / -5.6°C 88% 30.61 in / 1036.6 hPa 5.0 miles / 8.0 kilometers NNW 5.8 mph / 9.3 km/h - N/A   Overcast
8:52 AM 25.0°F / -3.9°C 23.0°F / -5.0°C 92% 30.62 in / 1036.9 hPa 3.0 miles / 4.8 kilometers NNW 3.5 mph / 5.6 km/h - N/A   Overcast
9:00 AM 24.8°F / -4.0°C 23.0°F / -5.0°C 93% 30.57 in / 1035.1 hPa 3.0 miles / 4.8 kilometers Calm Calm - N/A   Overcast
9:52 AM 26.1°F / -3.3°C 23.0°F / -5.0°C 88% 30.62 in / 1036.9 hPa 4.0 miles / 6.4 kilometers WNW 5.8 mph / 9.3 km/h - N/A   Overcast
10:52 AM 27.0°F / -2.8°C 21.9°F / -5.6°C 81% 30.61 in / 1036.6 hPa 4.0 miles / 6.4 kilometers West 3.5 mph / 5.6 km/h - N/A   Haze
11:52 AM 27.0°F / -2.8°C 21.9°F / -5.6°C 81% 30.59 in / 1035.8 hPa 7.0 miles / 11.3 kilometers Calm Calm - N/A   Overcast
11:59 AM 26.6°F / -3.0°C 21.2°F / -6.0°C 80% 30.53 in / 1033.7 hPa 7.0 miles / 11.3 kilometers Calm Calm - N/A   Overcast
12:52 PM 27.0°F / -2.8°C 23.0°F / -5.0°C 85% 30.56 in / 1034.9 hPa 6.0 miles / 9.7 kilometers Calm Calm - N/A   Overcast
1:52 PM 27.0°F / -2.8°C 21.9°F / -5.6°C 81% 30.55 in / 1034.3 hPa 10.0 miles / 16.1 kilometers West 5.8 mph / 9.3 km/h - N/A   Overcast
2:52 PM 27.0°F / -2.8°C 21.9°F / -5.6°C 81% 30.54 in / 1034.2 hPa 10.0 miles / 16.1 kilometers Calm Calm - N/A   Overcast
3:52 PM 27.0°F / -2.8°C 21.9°F / -5.6°C 81% 30.52 in / 1033.3 hPa 10.0 miles / 16.1 kilometers WSW 3.5 mph / 5.6 km/h - N/A   Overcast
4:52 PM 27.0°F / -2.8°C 21.9°F / -5.6°C 81% 30.53 in / 1033.6 hPa 10.0 miles / 16.1 kilometers Calm Calm - N/A   Overcast
5:52 PM 27.0°F / -2.8°C 21.9°F / -5.6°C 81% 30.52 in / 1033.4 hPa 10.0 miles / 16.1 kilometers WNW 3.5 mph / 5.6 km/h - N/A   Overcast
6:44 PM 26.6°F / -3.0°C 21.2°F / -6.0°C 80% 30.47 in / 1031.7 hPa 10.0 miles / 16.1 kilometers Calm Calm - N/A   Overcast
6:52 PM 27.0°F / -2.8°C 21.9°F / -5.6°C 81% 30.52 in / 1033.5 hPa 10.0 miles / 16.1 kilometers Calm Calm - N/A   Overcast
7:52 PM 27.0°F / -2.8°C 21.9°F / -5.6°C 81% 30.49 in / 1032.5 hPa 10.0 miles / 16.1 kilometers West 4.6 mph / 7.4 km/h - N/A   Overcast
8:52 PM 27.0°F / -2.8°C 21.9°F / -5.6°C 81% 30.47 in / 1031.8 hPa 10.0 miles / 16.1 kilometers WNW 3.5 mph / 5.6 km/h - N/A   Overcast
9:52 PM 27.0°F / -2.8°C 21.9°F / -5.6°C 81% 30.46 in / 1031.4 hPa 10.0 miles / 16.1 kilometers Calm Calm - N/A   Overcast
10:52 PM 27.0°F / -2.8°C 21.9°F / -5.6°C 81% 30.45 in / 1030.9 hPa 8.0 miles / 12.9 kilometers Calm Calm - N/A   Overcast
11:48 PM 26.6°F / -3.0°C 24.8°F / -4.0°C 93% 30.39 in / 1029.0 hPa 2.0 miles / 3.2 kilometers Calm Calm - N/A   Overcast
11:52 PM 26.1°F / -3.3°C 24.1°F / -4.4°C 92% 30.44 in / 1030.7 hPa 2.5 miles / 4.0 kilometers Calm Calm - N/A   Overcast
Moon Phase
Jan. 17 Jan. 18 Jan. 26 Feb. 03 Feb. 10
Sunrise:07:37 AM (PST) Moon Rise:10:17 AM (PST)1/17
Sunset:04:37 PM (PST) Moon Set:No Moon Set/

Copyright © 2014 The Weather Underground, Inc.